sat.trackr.live / text

‹ back to catalog

STARLINK-34659

NORAD 64913 · 2025-157K

PAYLOAD ACTIVE UNKNOWN

§ Identity

Operator
Country
US
Launch date
2025-07-26
Launch site
AFETR
Launch vehicle
Mass (kg)
RCS (m²)

Purposes: comms

External: N2YO · Heavens-Above · Gunter

§ Orbital elements

Epoch: 2026-05-25T00:13:33.686688Z

Period
94.01 min
Inclination
53.1594°
Eccentricity
0.0000423
Mean motion
15.31718637 rev/d
Perigee alt
470.4 km
Apogee alt
471.0 km
Semi-major
6,848.8 km
B*
8.3798e-4
RAAN
350.8211°
Arg perigee
100.4322°
Mean anomaly
259.6727°
Rev number
4,776

§ Raw data

STARLINK-346591 64913U 25157K   26145.00941767  .00025744  00000+0  83798-3 0  99942 64913  53.1594 350.8211 0000423 100.4322 259.6727 15.31718637 47767

JSON: /api/v1/satellites/64913 · /tle

For live sub-satellite position, see the globe view (requires WebGL).

§ Visibility from observer

Set your observer location to see the next 7 days of passes ≥ 10°. The values pass through the URL so the page stays shareable.

No JS? Fill the form by hand. The geolocation button needs JavaScript.